{"data":{"norad_id":58157,"intl_designator":"2023-166H","name":"STARLINK-30803","alt_names":[],"object_type":"PAYLOAD","status":"ACTIVE","operator":null,"country":"US","launch_date":"2023-10-29","launch_site_code":"AFWTR","launch_vehicle":null,"mission":null,"orbit_class":"UNKNOWN","rcs_meters":null,"size_class":null,"mass_kg":null,"dimensions":null,"purposes":["comms"],"wikipedia_slug":null,"has_3d_model":false,"image_url":null,"decayed_at":null,"tle_current":{"epoch":"2026-09-20T20:52:18.593760Z","epoch_age_seconds":108539,"freshness":"FRESH","line1":"1 58157U 23166H   26263.86965965  .00001917  00000+0  73498-4 0  9999","line2":"2 58157  53.1604  31.4894 0001168  95.3265 264.7870 15.31710075162937","mean_motion":15.31710075,"eccentricity":0.0001168,"inclination_deg":53.1604,"raan_deg":31.4894,"arg_perigee_deg":95.3265,"mean_anomaly_deg":264.787,"bstar":7.3498e-5,"rev_number":16293,"period_min":94.012569578482,"perigee_km":469.91001701433,"apogee_km":471.50990766473,"semimajor_km":6848.8469623395,"source":"CELESTRAK","updated_at":"2026-09-21T09:00:33.796989Z"}}}